Time,TemperatureF,DewpointF,PressureIn,WindDirection,WindDirectionDegrees,WindSpeedMPH,WindSpeedGustMPH,Humidity,HourlyPrecipIn,Conditions,Clouds,dailyrainin,SolarRadiationWatts/m^2,SoftwareType,DateUTC
2013-08-03 00:09:00,68.6,68.0,29.90,WSW,248,0.0,0.0,96,0.00,,,0.00,0,weatherlink.com 1.10,2013-08-03 04:09:00,
2013-08-03 00:24:00,68.5,67.0,29.90,WSW,248,0.0,0.0,96,0.00,,,0.00,0,weatherlink.com 1.10,2013-08-03 04:24:00,
2013-08-03 00:39:00,68.9,68.0,29.89,WSW,248,0.0,0.0,96,0.00,,,0.00,0,weatherlink.com 1.10,2013-08-03 04:39:00,
2013-08-03 00:54:00,69.0,68.0,29.89,WSW,248,0.0,0.0,96,0.00,,,0.00,0,weatherlink.com 1.10,2013-08-03 04:54:00,
2013-08-03 01:09:00,69.1,68.0,29.90,WSW,248,0.0,0.0,95,0.00,,,0.00,0,weatherlink.com 1.10,2013-08-03 05:09:00,
2013-08-03 01:24:00,69.0,68.0,29.89,WSW,248,0.0,0.0,95,0.00,,,0.00,0,weatherlink.com 1.10,2013-08-03 05:24:00,
2013-08-03 01:40:00,68.3,67.0,29.89,WSW,248,0.0,0.0,95,0.00,,,0.00,0,weatherlink.com 1.10,2013-08-03 05:40:00,
2013-08-03 01:55:00,67.8,67.0,29.89,WSW,248,0.0,0.0,96,0.00,,,0.00,0,weatherlink.com 1.10,2013-08-03 05:55:00,
2013-08-03 02:10:00,67.5,66.0,29.89,WSW,248,0.0,0.0,96,0.00,,,0.00,0,weatherlink.com 1.10,2013-08-03 06:10:00,
2013-08-03 02:25:00,67.4,66.0,29.88,WSW,248,0.0,0.0,96,0.00,,,0.00,0,weatherlink.com 1.10,2013-08-03 06:25:00,
2013-08-03 02:40:00,67.4,66.0,29.88,WSW,248,0.0,0.0,96,0.00,,,0.00,0,weatherlink.com 1.10,2013-08-03 06:40:00,
2013-08-03 02:55:00,67.5,66.0,29.88,WSW,248,0.0,0.0,95,0.00,,,0.00,0,weatherlink.com 1.10,2013-08-03 06:55:00,
2013-08-03 03:10:00,68.1,67.0,29.87,WSW,248,0.0,0.0,95,0.00,,,0.00,0,weatherlink.com 1.10,2013-08-03 07:10:00,
2013-08-03 03:24:00,68.2,67.0,29.87,WSW,248,0.0,0.0,96,0.00,,,0.00,0,weatherlink.com 1.10,2013-08-03 07:24:00,
2013-08-03 03:40:00,68.4,67.0,29.88,WSW,248,0.0,2.0,94,0.00,,,0.00,0,weatherlink.com 1.10,2013-08-03 07:40:00,
2013-08-03 03:55:00,69.1,67.0,29.88,WSW,248,0.0,0.0,92,0.00,,,0.00,0,weatherlink.com 1.10,2013-08-03 07:55:00,
2013-08-03 04:10:00,69.3,67.0,29.88,WSW,248,0.0,1.0,93,0.00,,,0.00,0,weatherlink.com 1.10,2013-08-03 08:10:00,
2013-08-03 04:25:00,69.0,67.0,29.88,WSW,248,0.0,0.0,94,0.00,,,0.00,0,weatherlink.com 1.10,2013-08-03 08:25:00,
2013-08-03 04:40:00,68.7,67.0,29.88,WSW,248,0.0,0.0,95,0.00,,,0.00,0,weatherlink.com 1.10,2013-08-03 08:40:00,
2013-08-03 04:55:00,68.3,67.0,29.88,WSW,248,0.0,0.0,96,0.00,,,0.00,0,weatherlink.com 1.10,2013-08-03 08:55:00,
2013-08-03 05:10:00,68.1,67.0,29.88,WSW,248,0.0,0.0,95,0.00,,,0.00,0,weatherlink.com 1.10,2013-08-03 09:10:00,
2013-08-03 05:25:00,67.7,67.0,29.88,WSW,248,0.0,0.0,96,0.00,,,0.00,0,weatherlink.com 1.10,2013-08-03 09:25:00,
2013-08-03 05:40:00,67.6,67.0,29.87,WSW,248,0.0,0.0,96,0.00,,,0.00,0,weatherlink.com 1.10,2013-08-03 09:40:00,
2013-08-03 05:55:00,67.4,66.0,29.88,WSW,248,0.0,0.0,96,0.00,,,0.00,0,weatherlink.com 1.10,2013-08-03 09:55:00,
2013-08-03 06:10:00,67.3,67.0,29.88,WSW,248,0.0,0.0,97,0.00,,,0.00,0,weatherlink.com 1.10,2013-08-03 10:10:00,
2013-08-03 06:25:00,67.4,67.0,29.89,WSW,248,0.0,0.0,97,0.00,,,0.00,0,weatherlink.com 1.10,2013-08-03 10:25:00,
2013-08-03 06:40:00,67.5,67.0,29.88,WSW,248,0.0,1.0,97,0.00,,,0.00,0,weatherlink.com 1.10,2013-08-03 10:40:00,
2013-08-03 06:55:00,67.6,67.0,29.89,WSW,248,0.0,1.0,96,0.00,,,0.00,0,weatherlink.com 1.10,2013-08-03 10:55:00,
2013-08-03 07:10:00,67.8,67.0,29.89,WSW,248,0.0,1.0,96,0.00,,,0.00,9,weatherlink.com 1.10,2013-08-03 11:10:00,
2013-08-03 07:25:00,68.1,67.0,29.89,WSW,248,0.0,2.0,95,0.00,,,0.00,35,weatherlink.com 1.10,2013-08-03 11:25:00,
2013-08-03 07:40:00,68.5,67.0,29.89,WSW,248,0.0,0.0,95,0.00,,,0.00,37,weatherlink.com 1.10,2013-08-03 11:40:00,
2013-08-03 07:55:00,69.0,68.0,29.89,WSW,248,0.0,1.0,95,0.00,,,0.00,102,weatherlink.com 1.10,2013-08-03 11:55:00,
2013-08-03 08:10:00,69.9,68.0,29.89,SW,225,1.0,3.0,92,0.00,,,0.00,88,weatherlink.com 1.10,2013-08-03 12:10:00,
2013-08-03 08:25:00,70.8,68.0,29.89,SW,222,0.0,4.0,90,0.00,,,0.00,114,weatherlink.com 1.10,2013-08-03 12:25:00,
2013-08-03 08:40:00,71.5,69.0,29.90,WSW,246,1.0,4.0,92,0.00,,,0.00,144,weatherlink.com 1.10,2013-08-03 12:40:00,
2013-08-03 08:55:00,72.2,69.0,29.91,SSW,192,0.0,5.0,89,0.00,,,0.00,156,weatherlink.com 1.10,2013-08-03 12:55:00,
2013-08-03 09:10:00,72.6,69.0,29.90,SW,223,1.0,3.0,88,0.00,,,0.00,202,weatherlink.com 1.10,2013-08-03 13:10:00,
2013-08-03 09:25:00,73.0,69.0,29.90,South,171,1.0,3.0,87,0.00,,,0.00,130,weatherlink.com 1.10,2013-08-03 13:25:00,
2013-08-03 09:40:00,73.1,70.0,29.90,SW,219,0.0,4.0,89,0.00,,,0.00,141,weatherlink.com 1.10,2013-08-03 13:40:00,
2013-08-03 09:55:00,73.4,70.0,29.90,SW,236,1.0,3.0,88,0.00,,,0.00,221,weatherlink.com 1.10,2013-08-03 13:55:00,
2013-08-03 10:10:00,74.1,70.0,29.90,SW,236,1.0,4.0,87,0.00,,,0.00,227,weatherlink.com 1.10,2013-08-03 14:10:00,
2013-08-03 10:25:00,74.8,71.0,29.90,WSW,241,1.0,4.0,87,0.00,,,0.00,290,weatherlink.com 1.10,2013-08-03 14:25:00,
2013-08-03 10:40:00,75.5,70.0,29.90,WNW,286,3.0,7.0,84,0.00,,,0.00,341,weatherlink.com 1.10,2013-08-03 14:40:00,
2013-08-03 10:55:00,76.0,70.0,29.91,SW,225,2.0,7.0,82,0.00,,,0.00,334,weatherlink.com 1.10,2013-08-03 14:55:00,
2013-08-03 11:11:00,76.3,70.0,29.91,SW,234,5.0,8.0,80,0.00,,,0.00,366,weatherlink.com 1.10,2013-08-03 15:11:00,
2013-08-03 11:25:00,76.5,71.0,29.91,WSW,246,4.0,8.0,83,0.00,,,0.00,272,weatherlink.com 1.10,2013-08-03 15:25:00,
2013-08-03 11:41:00,77.1,71.0,29.92,WSW,248,4.0,6.0,82,0.00,,,0.00,380,weatherlink.com 1.10,2013-08-03 15:41:00,
2013-08-03 11:56:00,77.7,71.0,29.93,SW,225,6.0,8.0,80,0.00,,,0.00,431,weatherlink.com 1.10,2013-08-03 15:56:00,
2013-08-03 12:11:00,77.6,71.0,29.93,West,260,4.0,6.0,79,0.00,,,0.00,410,weatherlink.com 1.10,2013-08-03 16:11:00,
2013-08-03 12:26:00,77.5,72.0,29.93,West,261,1.0,6.0,82,0.00,,,0.00,188,weatherlink.com 1.10,2013-08-03 16:26:00,
2013-08-03 12:41:00,77.1,71.0,29.93,SW,223,4.0,7.0,82,0.00,,,0.00,390,weatherlink.com 1.10,2013-08-03 16:41:00,
2013-08-03 12:56:00,78.0,72.0,29.93,SW,219,6.0,8.0,81,0.00,,,0.00,392,weatherlink.com 1.10,2013-08-03 16:56:00,
2013-08-03 13:11:00,77.9,71.0,29.92,SW,229,6.0,9.0,80,0.00,,,0.00,494,weatherlink.com 1.10,2013-08-03 17:11:00,
2013-08-03 13:26:00,78.8,73.0,29.92,WNW,289,3.0,8.0,82,0.00,,,0.00,578,weatherlink.com 1.10,2013-08-03 17:26:00,
2013-08-03 13:41:00,78.4,72.0,29.92,West,267,5.0,8.0,80,0.00,,,0.00,315,weatherlink.com 1.10,2013-08-03 17:41:00,
2013-08-03 13:56:00,77.9,72.0,29.92,West,269,5.0,9.0,81,0.00,,,0.00,274,weatherlink.com 1.10,2013-08-03 17:56:00,
2013-08-03 14:11:00,77.7,72.0,29.92,WSW,242,2.0,8.0,83,0.00,,,0.00,353,weatherlink.com 1.10,2013-08-03 18:11:00,
2013-08-03 14:26:00,77.9,72.0,29.92,WSW,254,2.0,8.0,83,0.00,,,0.00,339,weatherlink.com 1.10,2013-08-03 18:26:00,
2013-08-03 14:41:00,77.5,72.0,29.92,WSW,252,4.0,6.0,83,0.00,,,0.00,427,weatherlink.com 1.10,2013-08-03 18:41:00,
2013-08-03 14:56:00,78.1,72.0,29.92,WSW,256,3.0,7.0,82,0.00,,,0.00,459,weatherlink.com 1.10,2013-08-03 18:56:00,
2013-08-03 15:11:00,78.3,72.0,29.92,WSW,246,2.0,9.0,82,0.00,,,0.00,494,weatherlink.com 1.10,2013-08-03 19:11:00,
2013-08-03 15:26:00,78.6,73.0,29.91,NW,307,2.0,5.0,83,0.00,,,0.00,461,weatherlink.com 1.10,2013-08-03 19:26:00,
2013-08-03 15:41:00,79.8,73.0,29.91,West,272,1.0,5.0,80,0.00,,,0.00,373,weatherlink.com 1.10,2013-08-03 19:41:00,
2013-08-03 15:56:00,79.9,73.0,29.91,WSW,240,3.0,5.0,80,0.00,,,0.00,339,weatherlink.com 1.10,2013-08-03 19:56:00,
2013-08-03 16:11:00,79.5,73.0,29.90,SW,231,3.0,8.0,80,0.00,,,0.00,381,weatherlink.com 1.10,2013-08-03 20:11:00,
2013-08-03 16:26:00,79.4,74.0,29.90,West,259,3.0,8.0,82,0.00,,,0.00,427,weatherlink.com 1.10,2013-08-03 20:26:00,
2013-08-03 16:56:00,80.0,73.0,29.89,West,281,2.0,6.0,80,0.00,,,0.00,357,weatherlink.com 1.10,2013-08-03 20:56:00,
2013-08-03 17:26:00,80.1,73.0,29.88,West,261,5.0,6.0,80,0.00,,,0.00,274,weatherlink.com 1.10,2013-08-03 21:26:00,
2013-08-03 17:41:00,80.3,74.0,29.88,NNE,15,3.0,4.0,80,0.00,,,0.00,322,weatherlink.com 1.10,2013-08-03 21:41:00,
2013-08-03 17:56:00,80.4,73.0,29.87,NW,318,2.0,4.0,79,0.00,,,0.00,244,weatherlink.com 1.10,2013-08-03 21:56:00,
2013-08-03 18:26:00,80.2,74.0,29.87,WNW,299,0.0,3.0,82,0.00,,,0.00,338,weatherlink.com 1.10,2013-08-03 22:26:00,
2013-08-03 18:41:00,81.6,74.0,29.87,WNW,293,0.0,3.0,78,0.00,,,0.00,285,weatherlink.com 1.10,2013-08-03 22:41:00,
2013-08-03 18:56:00,80.8,74.0,29.87,NW,325,0.0,2.0,79,0.00,,,0.00,63,weatherlink.com 1.10,2013-08-03 22:56:00,
2013-08-03 19:11:00,80.1,74.0,29.87,NW,325,0.0,3.0,81,0.00,,,0.00,336,weatherlink.com 1.10,2013-08-03 23:11:00,
2013-08-03 19:26:00,81.4,73.0,29.87,North,355,2.0,3.0,76,0.00,,,0.00,209,weatherlink.com 1.10,2013-08-03 23:26:00,
2013-08-03 19:41:00,80.1,72.0,29.87,WSW,247,2.0,4.0,76,0.00,,,0.00,134,weatherlink.com 1.10,2013-08-03 23:41:00,
2013-08-03 19:56:00,79.4,72.0,29.87,WSW,246,1.0,3.0,79,0.00,,,0.00,105,weatherlink.com 1.10,2013-08-03 23:56:00,
2013-08-03 20:11:00,79.5,73.0,29.87,WSW,246,1.0,2.0,79,0.00,,,0.00,54,weatherlink.com 1.10,2013-08-04 00:11:00,
2013-08-03 20:41:00,78.1,73.0,29.88,WSW,246,0.0,1.0,83,0.00,,,0.00,7,weatherlink.com 1.10,2013-08-04 00:41:00,
2013-08-03 20:56:00,76.7,73.0,29.88,WSW,246,0.0,0.0,88,0.00,,,0.00,0,weatherlink.com 1.10,2013-08-04 00:56:00,
2013-08-03 21:11:00,75.5,73.0,29.89,WSW,246,0.0,1.0,91,0.00,,,0.00,0,weatherlink.com 1.10,2013-08-04 01:11:00,
2013-08-03 21:26:00,75.2,72.0,29.90,WSW,246,2.0,2.0,90,0.00,,,0.00,0,weatherlink.com 1.10,2013-08-04 01:26:00,
2013-08-03 21:41:00,75.3,72.0,29.90,WSW,246,1.0,2.0,90,0.00,,,0.00,0,weatherlink.com 1.10,2013-08-04 01:41:00,
2013-08-03 21:56:00,75.1,72.0,29.91,West,261,1.0,3.0,90,0.00,,,0.00,0,weatherlink.com 1.10,2013-08-04 01:56:00,
2013-08-03 22:11:00,74.9,72.0,29.91,West,261,0.0,2.0,90,0.00,,,0.00,0,weatherlink.com 1.10,2013-08-04 02:11:00,
2013-08-03 22:26:00,74.8,72.0,29.92,WSW,240,2.0,2.0,91,0.00,,,0.00,0,weatherlink.com 1.10,2013-08-04 02:26:00,
2013-08-03 22:41:00,74.6,72.0,29.93,West,269,1.0,3.0,91,0.00,,,0.00,0,weatherlink.com 1.10,2013-08-04 02:41:00,
2013-08-03 22:56:00,74.4,72.0,29.93,SW,233,0.0,3.0,91,0.00,,,0.00,0,weatherlink.com 1.10,2013-08-04 02:56:00,
2013-08-03 23:26:00,73.5,71.0,29.94,WSW,242,3.0,4.0,93,0.00,,,0.00,0,weatherlink.com 1.10,2013-08-04 03:26:00,
2013-08-03 23:41:00,73.2,71.0,29.94,WSW,250,1.0,3.0,93,0.00,,,0.00,0,weatherlink.com 1.10,2013-08-04 03:41:00,